Regional Weather Roundup
Issued by NWS

Home | Current Version | Previous Version | Text Only | Print | Product List | Glossary On
Versions: 1 2 3 4 5 6 7 8 9 10 11 12 13 14 15 16 17 18 19 20 21 22 23 24 25 26 27 28 29 30 31 32 33 34 35 36 37 38 39 40 41 42 43 44 45 46 47 48 49 50
000
ASUS42 KFFC 211510
RWRGA
WEATHER ROUNDUP FOR GEORGIA
NATIONAL WEATHER SERVICE PEACHTREE CITY GA
1000 AM EST TUE FEB 21 2017

NOTE: "FAIR" INDICATES FEW OR NO CLOUDS BELOW 12,000 FEET WITH NO
SIGNIFICANT WEATHER AND/OR OBSTRUCTIONS TO VISIBILITY.

* = USE WITH CAUTION. THE STATIONS MARKED WITH AN ASTERISK MAY NOT
REPORT WEATHER SUCH AS PRECIPITATION, FOG, OR THUNDER AND ARE NOT
QUALITY CONTROLLED BY NWS.

THE REMARK "TC" DENOTES TEMPERATURE READING IN DEGREES CELSIUS.

GAZ001>058-211600-
NORTH GEORGIA

CITY           SKY/WX    TMP DP  RH WIND       PRES   REMARKS
ATLANTA        CLOUDY    59  49  69 SE10      30.11S
ATHENS         MOSUNNY   59  48  67 E9        30.14F
CHAMBLEE       CLOUDY    60  46  59 SE7       30.12S
PEACHTREE CITY CLOUDY    60  49  66 SE10      30.11S
ROME           CLOUDY    63  46  54 S7        30.07F
WEST ATLANTA   CLOUDY    61  46  57 SE8       30.10S
GAINESVILLE    MOSUNNY   58  45  62 E8        30.15F
CARTERSVILLE   MOSUNNY   61  47  59 VRB7      30.10S


CITY           SKY/WX    TMP DP  RH WIND       PRES   REMARKS
DALTON*        MOSUNNY   63  46  55 S5        30.09S
LAWRENCEVILLE* PTSUNNY   57  46  67 SE7       30.14S
MARIETTA       PTSUNNY   60  47  60 E9        30.11R
KENNESAW*      PTSUNNY   57  46  67 SE9G17    30.13S
CANTON*        PTSUNNY   57  37  47 E7        30.14R
$$

GAZ059>098-102>109-211600-
CENTRAL GEORGIA

CITY           SKY/WX    TMP DP  RH WIND       PRES   REMARKS
AUGUSTA-BUSH   MOSUNNY   61  53  75 SE5       30.17F
AUGUSTA-DANIEL PTSUNNY   61  53  75 SE6       30.17F
COLUMBUS       CLOUDY    62  52  69 SE7       30.06F
MACON          MOSUNNY   61  54  77 SE8       30.11F
ROBINS AFB     MOSUNNY   62  55  79 SE9       30.10S


CITY           SKY/WX    TMP DP  RH WIND       PRES   REMARKS
LAGRANGE*      CLOUDY    63  56  78 SE5       30.09R
SYLVANIA*      PTSUNNY  N/A N/A N/A SE8       30.17S
MILLEDGEVILLE* CLOUDY    63  55  77 SE3       30.13F
$$

GAZ099>101-110>166-211600-
SOUTH GEORGIA

CITY           SKY/WX    TMP DP  RH WIND       PRES   REMARKS
SAVANNAH       CLOUDY    68  57  68 E10       30.16S
VALDOSTA       PTSUNNY   63  61  93 SE7       30.10F
ALMA           CLOUDY    64  60  87 SE5       30.13S
ST SIMONS      PTSUNNY   67  63  87 E9        30.13S
FT STEWART     CLOUDY    64  58  80 E6        30.12F
ALBANY         PTSUNNY   67  61  81 SE8       30.09F
HUNTER AFB     CLOUDY    67  62  83 E8        30.13S
MOODY AFB      PTSUNNY   64  60  87 SE9       30.09F
BRUNSWICK      PTSUNNY   68  66  94 NE6       30.15S


CITY           SKY/WX    TMP DP  RH WIND       PRES   REMARKS
BAINBRIDGE*    PTSUNNY   64  59  82 SE7       30.06R
MOULTRIE*      PTSUNNY   64  61  88 SE8       30.09F
VIDALIA*       PTSUNNY   64  61  88 E8        30.14S
WAYCROSS*      CLOUDY    66  66 100 SE7       30.14R
DOUGLAS*       CLOUDY    63  59  88 SE3       30.14S
$$




USA.gov is the U.S. government's official web portal to all federal, state and local government web resources and services.